Вернуться в каталог

FREGAT R/B

АктивенMEO
NORAD 40352·ROCKET BODY·🇷🇺 Russia

Запущен Dec 18, 2014 с Guiana Space Centre

Loading…

Ближайшие Пролёты (ближайшие 24 часа)

TLE

СвежийSource: Space-Track

Эпоха: Sep 14, 2026, 09:10 UTC

1 40352U 14083E   26257.38211334 -.00000024  00000-0  00000-0 0  9994
2 40352   0.0943  52.6485 0007654  34.4489 272.9911  5.20672770223336

Отслеживайте FREGAT R/B в реальном времени с AllMySat

Download on the App Store